Regional Weather Roundup
Issued by NWS

Home | Current Version | Previous Version | Graphics & Text | Print | Product List | Glossary On
Versions: 1 2 3 4 5 6 7 8 9 10 11 12 13 14 15 16 17 18 19 20 21 22 23 24 25 26 27 28 29 30 31 32 33 34 35 36 37 38 39 40 41 42 43 44 45 46 47 48 49 50
000
ASUS43 KOAX 221610
RWRNE

WEATHER ROUNDUP FOR NEBRASKA
NATIONAL WEATHER SERVICE OMAHA NE
1100 AM CDT SUN OCT 22 2017

NOTES: SATELLITE DATA IS BEING USED TO AUGMENT CLOUD COVER ABOVE
       12000 FEET.
       "FAIR" INDICATES FEW OR NO CLOUDS BELOW 12,000 FEET WITH NO
       SIGNIFICANT WEATHER AND/OR OBSTRUCTIONS TO VISIBILITY.


NEZ001>004-019>022-054>056-221700-
NEBRASKA PANHANDLE

CITY           SKY/WX    TMP DP  RH WIND       PRES   REMARKS
SCOTTSBLUFF    SUNNY     58  26  29 W18G32    30.09F
ALLIANCE       SUNNY     56  24  29 W22G28    30.07F
CHADRON        SUNNY     55  20  25 SW13      30.02F
GORDON         FAIR      49  25  38 SW13G18   30.03F
KIMBALL        SUNNY     56  25  29 W16G24    30.15F
SIDNEY         SUNNY     55  21  26 SW16      30.15S
$$

NEZ057>060-069>072-079>082-221700-
SOUTHWEST NEBRASKA

CITY           SKY/WX    TMP DP  RH WIND       PRES   REMARKS
NORTH PLATTE   SUNNY     49  34  56 NW7       30.16S
IMPERIAL       SUNNY     55  21  26 SW18G25   30.17F
LEXINGTON      SUNNY     51  34  52 NW6       30.16S
MCCOOK         SUNNY     50  29  44 W10       30.19R
OGALLALA       SUNNY     51  27  39 W5        30.15F
$$

NEZ005>010-023>029-035>040-094-221700-
NORTH CENTRAL NEBRASKA

CITY           SKY/WX    TMP DP  RH WIND       PRES   REMARKS
VALENTINE      SUNNY     52  30  43 SW15      30.03F
AINSWORTH      SUNNY     52  29  42 SW12      30.06F
BROKEN BOW     SUNNY     51  30  44 W10       30.12S
O`NEILL        SUNNY     55  35  46 SW12G20   30.06F
ORD            SUNNY     52  40  63 E3        30.09F
THEDFORD       SUNNY     55  28  35 SW13      30.10F
$$

NEZ041-046>049-061>064-073>077-083>087-221700-
SOUTH CENTRAL NEBRASKA

CITY           SKY/WX    TMP DP  RH WIND       PRES   REMARKS
GRAND ISLAND   SUNNY     55  34  45 SW9       30.14S
AURORA         SUNNY     58  36  45 SW7       30.13S
HASTINGS       SUNNY     55  33  43 SW6       30.15F
HEBRON         SUNNY     60  38  44 W6        30.15F
HOLDREGE       SUNNY     55  31  40 W10       30.16R
KEARNEY        SUNNY     53  28  38 W15       30.15S
YORK           SUNNY     59  37  44 SW8       30.13F
$$

NEZ011>018-030>034-042>045-221700-
NORTHEAST NEBRASKA

CITY           SKY/WX    TMP DP  RH WIND       PRES   REMARKS
NORFOLK        SUNNY     57  35  43 SW8       30.08F
ALBION         SUNNY     57  36  46 SW12      30.11S
BLAIR          SUNNY     56  38  51 W5        30.11F
COLUMBUS       SUNNY     53  39  59 SW6       30.13S
FREMONT        SUNNY     55  36  48 W6        30.12F
TEKAMAH        SUNNY     58  36  43 VRB3      30.10F
WAYNE          SUNNY     56  36  48 SW5       30.09S
$$

NEZ050>053-065>068-078-088>093-221700-
SOUTHEAST NEBRASKA

CITY           SKY/WX    TMP DP  RH WIND       PRES   REMARKS
LINCOLN        SUNNY     57  39  51 SW5       30.15F
OMAHA EPPLEY   MOSUNNY   54  40  59 SE3       30.12S
BEATRICE       SUNNY     57  42  58 W5        30.15S
FALLS CITY     SUNNY     56  42  59 NW9       30.13S
NEBRASKA CITY  SUNNY     58  40  50 NW6       30.14S
PLATTSMOUTH    SUNNY     57  40  52 W3        30.13S
$$

NEZ044-045-051>053-067-221700-
OMAHA AREA

CITY           SKY/WX    TMP DP  RH WIND       PRES   REMARKS
OMAHA EPPLEY   MOSUNNY   54  40  59 SE3       30.12S
BLAIR          SUNNY     56  38  51 W5        30.11F
FREMONT        SUNNY     55  36  48 W6        30.12F
MILLARD        SUNNY     58  40  50 W6        30.13S
OFFUTT AFB     SUNNY     55  39  55 CALM      30.13R
PLATTSMOUTH    SUNNY     57  40  52 W3        30.13S
WAHOO          FAIR      59  35  40 W3        30.12F
$$



USA.gov is the U.S. government's official web portal to all federal, state and local government web resources and services.